Regional Weather Roundup
Issued by NWS

Home | Current Version | Previous Version | Text Only | Print | Product List | Glossary Off
Versions: 1 2 3 4 5 6 7 8 9 10 11 12 13 14 15 16 17 18 19 20 21 22 23 24 25 26 27 28 29 30 31 32 33 34 35 36 37 38 39 40 41 42 43 44 45 46 47 48 49 50

000
ASUS45 KCYS 020510
RWRWY

WYOMING REGIONAL WEATHER ROUNDUP
NATIONAL WEATHER SERVICE CHEYENNE WY
1100 PM MDT TUE SEP 01 2015

NOTE:  "FAIR" INDICATES FEW OR NO CLOUDS BELOW 12,000 FEET
WITH NO SIGNIFICANT WEATHER AND/OR OBSTRUCTIONS TO VISIBILITY.

WYZ001-020600-
YELLOWSTONE NATIONAL PARK

CITY           SKY/WX    TMP DP  RH WIND       PRES   REMARKS
LK YELLOWSTONE   N/A     45  30  55 NW3       30.17F
W YELLOWSTONE  NOT AVBL

$$
WYZ002>013-054>058-071-098>099-020600-
NORTHERN WYOMING

CITY           SKY/WX    TMP DP  RH WIND       PRES   REMARKS
JACKSON        FAIR      54  39  58 CALM      30.08S
CODY           FAIR      70  28  21 SW7       29.93S
GREYBULL       FAIR      72  38  29 E5        29.83R
WORLAND        FAIR      70  41  34 S12       29.86S
SHERIDAN       FAIR      62  40  44 N7        29.84F
BUFFALO        FAIR      76  27  16 S3        29.94F
GILLETTE       FAIR      70  34  26 S12       29.91S
HULETT         FAIR      68  43  40 SE9       29.92S
NEWCASTLE        N/A     64  32  29 W5        29.94R

$$
WYZ014>020-022>026-101>103-020600-
CENTRAL WYOMING

CITY           SKY/WX    TMP DP  RH WIND       PRES   REMARKS
BIG PINEY      FAIR      58  33  39 CALM      30.17R
PINEDALE       FAIR      59  37  44 E6        30.18S
DUBOIS         FAIR      55  30  38 CALM      30.14S
LANDER         FAIR      75  37  25 SW18      30.00S
RIVERTON       FAIR      73  38  27 SW9       30.01S
CASPER         FAIR      72  39  30 SW14      30.03S
DOUGLAS        FAIR      75  40  28 W9        30.01S

$$
WYZ021-027>030-104>119-020600-
SOUTHERN WYOMING

CITY           SKY/WX    TMP DP  RH WIND       PRES   REMARKS
EVANSTON       FAIR      65  35  33 SE8       30.17F
KEMMERER       FAIR      63  34  34 S6        30.19R
FORT BRIDGER   CLOUDY    66  43  42 S13       30.20F
ROCK SPRINGS   FAIR      61  42  49 SE12      30.17S
DIXON          FAIR      59  47  62 CALM      30.25S
RAWLINS        FAIR      65  38  36 SW12      30.18F
SARATOGA       FAIR      57  43  58 S10       30.22F
LARAMIE        FAIR      53  42  66 SE8       30.22F
CHEYENNE       FAIR      65  40  39 W14       30.12F
TORRINGTON     FAIR      70  48  45 W8        29.95S
PINE BLUFFS    FAIR      63  37  39 S9        30.06S

$$


USA.gov is the U.S. government's official web portal to all federal, state and local government web resources and services.